Location: Favalello
(42.2939°N, 9.2706°E)
Time: 07:05:21
(UTC+00:00)

COSMO-SKYMED 1 - Pass Details

Date: 06 December 2019
Orbit: 621 x 623 km, 97.9° (Epoch: 20 January)

Event Time Altitude Azimuth Distance (km) Brightness Sun altitude
Exits shadow 17:53:31 15° 1° (N) 1,700 4.7 -22.0°
Maximum altitude 17:57:01 55° 287° (WNW) 750 3.2 -22.7°
Drops below altitude 10° 18:01:14 10° 209° (SSW) 1,987 5.6 -23.4°
Sets 18:03:26 0° 205° (SSW) 2,888 6.5 -23.8°
